{"data":{"norad_id":60054,"epoch":"2026-09-21T22:36:33.140736Z","epoch_age_seconds":53095,"freshness":"FRESH","line1":"1 60054U 24112S   26264.94205024  .00000179  00000+0  16439-4 0  9994","line2":"2 60054  53.1601 245.0141 0001550  64.6046 295.5117 15.34385774128667","mean_motion":15.34385774,"eccentricity":0.000155,"inclination_deg":53.1601,"raan_deg":245.0141,"arg_perigee_deg":64.6046,"mean_anomaly_deg":295.5117,"bstar":1.6439e-5,"rev_number":12866,"period_min":93.848628187294,"perigee_km":461.68518641269,"apogee_km":463.80585999488,"semimajor_km":6840.8825232038,"source":"CELESTRAK","updated_at":"2026-09-22T09:00:49.144906Z"}}